Sturgis, MI

4:33 AM EDT on October 01, 2016 (GMT -0400)
Kirsch Municipal

Weather History for KIRS - September, 2013

Change the Weather History Date:

Thursday, September 19, 2013

  Actual Average (KHAI) Record (KHAI)
Temperature  
Mean Temperature 68 °F -  
Max Temperature 73 °F 75 °F 91 °F (1948)
Min Temperature 64 °F 49 °F 36 °F (1982)
Cooling Degree Days 4    
Growing Degree Days 18 (Base 50)    
Moisture  
Dew Point 64 °F    
Average Humidity 89    
Maximum Humidity 100    
Minimum Humidity 56    
Precipitation  
Precipitation 0.00 in - - ()
Sea Level Pressure  
Sea Level Pressure 29.98 in    
Wind  
Wind Speed 5 mph (SSW)    
Max Wind Speed 16 mph    
Max Gust Speed 21 mph    
Visibility 8 miles    
Events Rain    
Averages and records for this station are not official NWS values.
T = Trace of Precipitation, MM = Missing Value Source: NWS Daily Summary

Daily Weather History Graph

Daily Weather History Graph

Search for Another Location

Airport or City:

Trip Planner

Search our weather history database for the weather conditions in past years. The results will help you decide how hot, cold, wet, or windy it might be!

Date:

Astronomy

Sep. 19, 2013 Rise Set
Actual Time 7:26 AM EDT 7:43 PM EDT
Civil Twilight 6:58 AM EDT 8:11 PM EDT
Nautical Twilight 6:25 AM EDT 8:44 PM EDT
Astronomical Twilight 5:52 AM EDT 9:17 PM EDT
Moon 7:40 PM EDT (9/19) 7:35 AM EDT (9/19)
Length of Visible Light 13h 13m
Length of Day
12h 17m
Full, 100% of the Moon is Illuminated
Sep 19
Full
Sep 26
Last Quarter
Oct 4
New
Oct 11
First Quarter
Oct 18
Full

Hourly Weather History & Observations

Time (EDT) Temp. Dew Point Humidity Pressure Visibility Wind Dir Wind Speed Gust Speed Precip Events Conditions
12:15 AM 68.0 °F 51.8 °F 56% 30.02 in 10.0 mi SSE 4.6 mph - N/A   Scattered Clouds
12:35 AM 68.0 °F 53.6 °F 60% 30.03 in 10.0 mi SSE 5.8 mph - N/A   Scattered Clouds
12:54 AM 69.8 °F 53.6 °F 56% 30.02 in 10.0 mi South 5.8 mph - N/A   Clear
1:15 AM 69.8 °F 53.6 °F 56% 30.02 in 10.0 mi South 5.8 mph - N/A   Clear
1:35 AM 68.0 °F 55.4 °F 64% 30.01 in 10.0 mi South 5.8 mph - N/A   Scattered Clouds
1:55 AM 69.8 °F 57.2 °F 64% 30.01 in 10.0 mi South 8.1 mph - N/A   Mostly Cloudy
2:15 AM 68.0 °F 60.8 °F 78% 30.02 in 10.0 mi SSW 6.9 mph - N/A   Clear
2:34 AM 68.0 °F 62.6 °F 83% 30.02 in 10.0 mi South 6.9 mph - N/A   Clear
2:55 AM 66.2 °F 62.6 °F 88% 30.01 in 10.0 mi SSW 4.6 mph - N/A   Clear
3:14 AM 66.2 °F 62.6 °F 88% 30.01 in 10.0 mi SW 3.5 mph - N/A   Mostly Cloudy
3:35 AM 64.4 °F 62.6 °F 94% 30.01 in 7.0 mi Calm Calm - N/A   Scattered Clouds
3:55 AM 64.4 °F 62.6 °F 94% 30.01 in 7.0 mi Calm Calm - N/A   Scattered Clouds
4:14 AM 64.4 °F 62.6 °F 94% 30.00 in 5.0 mi Calm Calm - N/A   Mostly Cloudy
4:35 AM 64.4 °F 62.6 °F 94% 30.00 in 7.0 mi Calm Calm - N/A   Mostly Cloudy
4:55 AM 64.4 °F 64.4 °F 100% 29.99 in 5.0 mi Calm Calm - N/A   Mostly Cloudy
5:14 AM 64.4 °F 62.6 °F 94% 30.00 in 5.0 mi Calm Calm - N/A   Mostly Cloudy
5:35 AM 66.2 °F 64.4 °F 94% 30.01 in 5.0 mi Calm Calm - N/A   Mostly Cloudy
5:55 AM 66.2 °F 64.4 °F 94% 30.00 in 5.0 mi Calm Calm - N/A   Mostly Cloudy
6:14 AM 66.2 °F 64.4 °F 94% 30.00 in 5.0 mi Calm Calm - N/A   Scattered Clouds
6:35 AM 66.2 °F 64.4 °F 94% 30.01 in 5.0 mi Calm Calm - N/A   Mostly Cloudy
6:55 AM 64.4 °F 64.4 °F 100% 30.03 in 5.0 mi West 3.5 mph - N/A   Overcast
7:14 AM 64.4 °F 64.4 °F 100% 30.03 in 5.0 mi SW 4.6 mph - N/A   Overcast
7:35 AM 64.4 °F 64.4 °F 100% 30.04 in 5.0 mi SSW 4.6 mph - N/A   Scattered Clouds
7:55 AM 64.4 °F 64.4 °F 100% 30.03 in 5.0 mi South 3.5 mph - N/A Rain Light Rain
8:14 AM 64.4 °F 64.4 °F 100% 30.03 in 5.0 mi South 5.8 mph - N/A Rain Light Rain
8:35 AM 64.4 °F 64.4 °F 100% 30.03 in 4.0 mi Calm Calm - N/A   Clear
8:54 AM 64.4 °F 64.4 °F 100% 30.03 in 2.5 mi SSE 4.6 mph - N/A   Clear
9:15 AM 68.0 °F 66.2 °F 94% 30.02 in 5.0 mi SSE 6.9 mph - N/A   Scattered Clouds
9:35 AM 68.0 °F 64.4 °F 88% 30.02 in 7.0 mi South 6.9 mph - N/A   Clear
9:54 AM 71.6 °F 66.2 °F 83% 30.02 in 10.0 mi South 6.9 mph - N/A   Clear
10:15 AM 71.6 °F 66.2 °F 83% 30.02 in 10.0 mi SSW 6.9 mph - N/A   Clear
10:35 AM 73.4 °F 66.2 °F 78% 30.02 in 10.0 mi SSW 9.2 mph - N/A   Scattered Clouds
10:54 AM 73.4 °F 66.2 °F 78% 30.03 in 10.0 mi SSW 8.1 mph - N/A   Mostly Cloudy
11:15 AM 73.4 °F 66.2 °F 78% 30.03 in 10.0 mi SW 5.8 mph - N/A   Mostly Cloudy
11:35 AM 71.6 °F 68.0 °F 88% 30.03 in 1.8 mi Calm Calm - N/A Rain Rain
11:54 AM 69.8 °F 68.0 °F 94% 30.04 in 10.0 mi WSW 8.1 mph - N/A   Mostly Cloudy
12:15 PM 69.8 °F 66.2 °F 88% 30.05 in 10.0 mi SW 8.1 mph - N/A Rain Light Rain
12:35 PM 69.8 °F 66.2 °F 88% 30.04 in 4.0 mi SSW 6.9 mph - N/A Rain Heavy Rain
12:54 PM 68.0 °F 66.2 °F 94% 30.04 in 4.0 mi SW 6.9 mph - N/A Rain Rain
1:15 PM 68.0 °F 66.2 °F 94% 30.04 in 1.5 mi SW 8.1 mph - N/A Rain Heavy Rain
1:34 PM 66.2 °F 66.2 °F 100% 30.03 in 3.0 mi SW 8.1 mph - N/A Rain Heavy Rain
1:54 PM 66.2 °F 66.2 °F 100% 30.02 in 3.0 mi SW 3.5 mph - N/A Rain Rain
2:15 PM 66.2 °F 66.2 °F 100% 30.00 in 4.0 mi South 8.1 mph - N/A Rain Rain
2:34 PM 66.2 °F 66.2 °F 100% 30.01 in 5.0 mi SW 11.5 mph - N/A Rain Rain
2:54 PM 66.2 °F 66.2 °F 100% 30.01 in 5.0 mi SSW 11.5 mph - N/A Rain Rain
3:15 PM 66.2 °F 66.2 °F 100% 29.99 in 7.0 mi SSW 16.1 mph - N/A Rain Rain
3:34 PM 66.2 °F 66.2 °F 100% 29.96 in 7.0 mi South 15.0 mph 20.7 mph N/A Rain Light Rain
3:54 PM 68.0 °F 66.2 °F 94% 29.97 in 10.0 mi SSW 10.4 mph - N/A Rain Light Rain
4:15 PM 68.0 °F 66.2 °F 94% 29.98 in 10.0 mi WSW 10.4 mph - N/A Rain Light Rain
4:34 PM 66.2 °F 64.4 °F 94% 29.96 in 10.0 mi SSW 10.4 mph - N/A Rain Light Rain
4:55 PM 66.2 °F 64.4 °F 94% 29.91 in 10.0 mi South 15.0 mph - N/A Rain Light Rain
5:15 PM 66.2 °F 64.4 °F 94% 29.93 in 10.0 mi SSW 5.8 mph - N/A   Clear
5:34 PM 66.2 °F 64.4 °F 94% 29.92 in 10.0 mi SSW 8.1 mph - N/A   Clear
5:55 PM 68.0 °F 64.4 °F 88% 29.92 in 10.0 mi SSW 6.9 mph - N/A   Clear
6:14 PM 69.8 °F 66.2 °F 88% 29.92 in 10.0 mi SSW 9.2 mph - N/A   Clear
6:34 PM 69.8 °F 66.2 °F 88% 29.92 in 10.0 mi SSW 8.1 mph - N/A   Clear
6:55 PM 69.8 °F 66.2 °F 88% 29.91 in 10.0 mi South 9.2 mph - N/A   Clear
7:15 PM 69.8 °F 66.2 °F 88% 29.91 in 10.0 mi South 6.9 mph - N/A   Clear
7:34 PM 69.8 °F 66.2 °F 88% 29.90 in 10.0 mi South 8.1 mph - N/A   Clear
7:55 PM 69.8 °F 66.2 °F 88% 29.90 in 10.0 mi South 8.1 mph - N/A   Clear
8:14 PM 68.0 °F 66.2 °F 94% 29.90 in 10.0 mi South 5.8 mph - N/A   Clear
8:34 PM 69.8 °F 66.2 °F 88% 29.91 in 10.0 mi South 5.8 mph - N/A   Clear
8:55 PM 68.0 °F 66.2 °F 94% 29.92 in 10.0 mi South 5.8 mph - N/A   Clear
9:14 PM 68.0 °F 66.2 °F 94% 29.93 in 10.0 mi South 5.8 mph - N/A   Clear
9:35 PM 68.0 °F 66.2 °F 94% 29.93 in 7.0 mi SSE 4.6 mph - N/A   Clear
9:54 PM 69.8 °F 66.2 °F 88% 29.94 in 10.0 mi South 5.8 mph - N/A   Clear
10:15 PM 68.0 °F 66.2 °F 94% 29.93 in 10.0 mi South 5.8 mph - N/A   Clear
10:34 PM 69.8 °F 66.2 °F 88% 29.93 in 10.0 mi South 6.9 mph - N/A   Clear
10:54 PM 69.8 °F 66.2 °F 88% 29.92 in 10.0 mi South 5.8 mph - N/A   Clear
11:15 PM 69.8 °F 66.2 °F 88% 29.91 in 10.0 mi South 5.8 mph - N/A   Clear
11:35 PM 69.8 °F 66.2 °F 88% 29.90 in 10.0 mi South 5.8 mph - N/A   Clear
11:54 PM 69.8 °F 66.2 °F 88% 29.90 in 7.0 mi South 6.9 mph - N/A   Clear